Regional Weather Roundup
Issued by NWS Northern Indiana

Home | Current Version | Previous Version | Graphics & Text | Print | Product List | Glossary On
Versions: 1 2 3 4 5 6 7 8 9 10 11 12 13 14 15 16 17 18 19 20 21 22 23 24 25 26 27 28 29 30 31 32 33 34 35 36 37 38 39 40 41 42 43 44 45 46 47 48 49 50
000
ASUS43 KIWX 291710
RWRIWX

KIWX WEATHER ROUNDUP
NATIONAL WEATHER SERVICE NORTHERN INDIANA
1200 PM EST THU JAN 29 2015

NOTE: "FAIR" INDICATES FEW OR NO CLOUDS BELOW 12,000 FEET WITH NO
SIGNIFICANT WEATHER AND/OR OBSTRUCTIONS TO VISIBILITY.

* THESE STATIONS ARE NOT UNDER NWS QUALITY CONTROL. THEY ALSO MAY NOT
  REPORT WEATHER SUCH AS PRECIPITATION OR FOG.

INZ001>027-291800-
NORTHERN INDIANA

CITY           SKY/WX    TMP DP  RH WIND       PRES   REMARKS
GARY*          CLOUDY    36  27  69 NW14G29   29.89R
VALPARAISO     CLOUDY    33  28  81 NW16G25   29.85R HAZE    WCI  23
MICHIGAN CITY* CLOUDY    34  28  80 NW12G21   29.85R HAZE    WCI  25
LAPORTE*       CLOUDY    35  32  88 NW20G29   29.84R FOG     WCI  24
KNOX*          CLOUDY    34  22  62 NW21G28   29.83R WCI  22
SOUTH BEND     CLOUDY    35  30  82 NW20G26   29.80R WCI  24
ELKHART*       CLOUDY    36  28  75 NW12G17   29.78R
GOSHEN         CLOUDY    36  30  79 NW17G25   29.76R
MONTICELLO*    CLOUDY    35  32  89 NW17G24   29.85R WCI  25
LOGANSPORT*    CLOUDY    36  32  87 NW13G22   29.83R
ROCHESTER*     CLOUDY    37  32  81 NW14G24   29.80R
WARSAW*        CLOUDY    36  32  87 NW14      29.76R
ANGOLA*        CLOUDY    37  28  70 W7        29.72S
FORT WAYNE     CLOUDY    39  32  76 W15       29.74F
HUNTINGTON*    CLOUDY    39  30  70 W14       29.75R
PERU/GRISSOM   CLOUDY    37  33  85 NW17      29.79R
MARION*        CLOUDY    37  33  85 W14       29.79R

$$
INZ028>050-291800-
CENTRAL INDIANA

CITY           SKY/WX    TMP DP  RH WIND       PRES   REMARKS
LAFAYETTE      CLOUDY    34  31  88 W16G25    29.88R FOG     WCI  24
KOKOMO*        CLOUDY    36  30  80 W16       29.80R
MUNCIE*        CLOUDY    39  35  86 W16G23    29.78R FOG
INDIANAPOLIS   CLOUDY    36  32  85 W17       29.87R

$$
MIZ043>046-050>051-056>058-064>065-071>073-077>080-291800-
SOUTHWEST LOWER MICHIGAN

CITY           SKY/WX    TMP DP  RH WIND       PRES   REMARKS
BATTLE CREEK   LGT SNOW  35  27  72 NW8       29.75R WCI  29
BENTON HARBOR  LGT SNOW  33  32  96 VRB6G21   29.82R FOG     WCI  28
COLDWATER*     CLOUDY    35  29  79 W7        29.73S WCI  29
HILLSDALE*     CLOUDY    34  30  83 W5        29.71S WCI  30
HOLLAND        LGT SNOW  33  29  85 NW9       29.80R FOG     WCI  25
GRAND RAPIDS   LGT SNOW  31  27  85 NW6       29.78R VSB 1   WCI  25
KALAMAZOO      SNOW      33  30  88 NW10      29.76R VSB 1/2 WCI  25
STURGIS*       LGT RAIN  36  28  75 NW7       29.74R
THREE RIVERS*  LGT SNOW  36  30  78 NW10      29.76R

$$
OHZ001>008-015>018-024>025-291800-
NORTHWEST OHIO

CITY           SKY/WX    TMP DP  RH WIND       PRES   REMARKS
WAUSEON*       CLOUDY    37  32  81 SW8       29.72F
DEFIANCE       CLOUDY   N/A N/A N/A MISG      29.74F
FINDLAY        CLOUDY    38  31  76 S14       29.74F
TOLEDO EXPRESS CLOUDY    38  30  73 SW7       29.73F
TOLEDO METCALF CLOUDY    39  30  70 SW9       29.74F
LIMA           CLOUDY    41  31  67 SW18G26   29.75F

$$
AND FOR LAKE MICHIGAN COASTAL AND OPEN LAKE BUOY OBSERVATIONS

STATION/POSITION TEMP    WIND        PRES    VSBY  WAVE
                 AIR SEA DIR/SP/G                  HT/PER
                 (F)     (DEG/KT/KT) (MB)    (MI)  (FT/S)
CALUMET HARBOR    35     290/ 12/ 22   N/A
MICHIGAN CITY     34     310/ 28/ 32   N/A
SAINT JOSEPH      34     330/ 21/ 25 1010.5R

$$
&&



USA.gov is the U.S. government's official web portal to all federal, state and local government web resources and services.